[[{"header":{"parameterUnit":"m.s-1","parameterCategory":1,"la1":30.2991,"la2":30.254,"lo1":-89.0895,"lo2":-89.0444,"dy":0.0017,"dx":0.0017,"nx":28,"ny":28,"refTime":"2025-04-12T03:00:00:Z","depth":0,"parameterNumber":2,"parameterNumberName":"U-component_of_WINDS"},"data":[0,0,0,0,0,0,0,0,0,0,0,0,0,0,0,0,0,0,0,0,0,0,0,0,0,0,0,0,0,0,0,0,0,0,0,0,0,0,0,0,0,0,0,0,0,0,0,0,0,0,0,0,0,0,0,0,0,0,2.6436,2.6435,0,2.6376,2.6376,2.6375,2.6232,2.6229,2.6226,2.6223,2.6164,2.6165,2.6166,0,0,0,0,0,0,0,0,0,0,0,0,0,2.6425,2.6426,2.6436,2.6435,2.6434,2.6376,2.6376,2.6375,2.6232,2.6228,2.6225,2.6221,2.6163,2.6165,2.6166,0,0,0,0,0,0,0,0,0,0,0,0,0,2.6404,2.6426,2.6436,2.6356,2.6348,2.6377,2.6376,2.6375,2.6233,2.6228,2.6224,2.622,2.6163,2.6165,2.6166,2.6268,0,0,2.6172,2.6173,0,0,0,0,0,0,0,0,2.6406,2.6405,2.6369,2.6362,2.6353,2.6307,2.635,2.6339,2.6234,2.6277,2.6223,2.6217,2.6215,2.6212,2.6211,2.6265,2.6263,2.6172,2.6173,2.6174,2.6175,0,0,0,0,0,0,0,2.6407,2.6406,2.6412,2.6368,2.6359,2.6323,2.6315,2.6347,2.6272,2.6273,2.6262,2.6257,2.621,2.621,2.6209,2.6262,2.6172,2.6174,2.6175,2.6176,2.6391,2.6395,0,0,0,0,0,0,2.642,2.6409,2.6414,2.641,2.6369,2.6327,2.6318,2.6326,2.6271,2.6258,2.6261,2.6251,2.6209,2.6207,2.6206,2.6317,2.6174,2.6176,2.6177,2.6386,2.6392,2.6397,0,0,0,0,0,0,2.642,2.6422,2.6417,2.6407,2.6403,2.6332,2.6342,2.6327,2.6327,2.6262,2.6248,2.6274,2.6205,2.6203,2.6252,2.6313,2.6177,2.6178,2.6381,2.6388,2.6394,2.6543,0,0,0,0,0,0,2.6421,2.6423,2.6461,2.6409,2.6404,2.6465,2.6346,2.6329,2.633,2.6316,2.6271,2.6259,2.6201,2.625,2.6254,2.6313,2.618,2.6375,2.6384,2.6392,2.6533,2.6555,2.6573,0,0,0,0,0,2.6421,2.6507,2.6464,2.6465,2.6451,2.6469,2.6466,2.6397,2.6336,2.6373,2.6331,2.6261,2.6307,2.6257,2.626,2.6321,2.6371,2.6381,2.6391,2.6524,2.655,2.6573,0,0,0,0,0,0,2.6571,2.6499,2.645,2.6522,2.6502,2.6444,2.6489,2.6428,2.6426,2.6413,2.6328,2.6319,2.6378,2.6355,2.63,2.6413,2.6327,2.6339,2.6426,2.6451,2.6471,2.6475,2.6181,0,0,0,0,0,2.6612,2.6632,2.6569,2.6638,2.6631,2.6562,2.6567,2.6515,2.6492,2.6483,2.6444,2.6424,2.6433,2.6441,2.6447,2.6529,2.6515,2.6572,2.6592,2.6609,2.662,2.6657,2.6681,2.6431,2.6431,2.643,0,0,2.6698,2.6661,2.668,2.6667,2.6646,2.6667,2.6556,2.6585,2.66,2.6487,2.653,2.6501,2.6473,2.6538,2.6564,2.6519,2.6686,2.6623,2.6637,2.6637,2.667,2.6694,2.6715,2.6438,2.6436,2.6435,0,0,2.6864,2.684,2.6893,2.6873,2.6841,2.6794,2.6807,2.6758,2.6733,2.6774,2.6689,2.6706,2.6725,2.6706,2.67,2.6856,2.679,2.686,2.6966,2.7003,2.7023,2.704,2.7092,2.7112,2.6871,2.6871,2.6872,0,2.6975,2.7004,2.6928,2.6961,2.6957,2.6855,2.6906,2.6891,2.6863,2.6862,2.6812,2.683,2.6805,2.6862,2.6899,2.6899,2.6909,2.6864,2.7026,2.7042,2.7057,2.7106,2.7126,2.688,2.6879,2.6878,2.6877,0,2.714,2.7162,2.7208,2.7181,2.7182,2.7226,2.7155,2.7165,2.7113,2.7071,2.7112,2.7077,2.7071,2.7081,2.7032,2.7131,2.7103,2.7042,2.6952,2.7091,2.7135,2.7153,2.6892,2.6889,2.6886,2.6884,0,0,2.74,2.7328,2.7346,2.733,2.7286,2.7301,2.7338,2.7331,2.734,2.7324,2.7351,2.7368,2.7309,2.7301,2.7248,2.7282,2.7403,2.7215,2.7213,2.7248,2.7505,2.755,2.7573,2.736,2.7363,2.7366,2.7506,0,2.7554,2.7611,2.7542,2.7615,2.7632,2.7533,2.7565,2.7541,2.7502,2.7511,2.7468,2.748,2.7403,2.7397,2.7426,2.7382,2.7453,2.7371,2.7382,2.7383,2.739,2.7597,2.7645,2.778,2.7524,2.7527,2.7529,0,2.7741,2.773,2.7804,2.7751,2.7755,2.7785,2.7771,2.7781,2.7751,2.772,2.771,2.7646,2.7676,2.7592,2.7631,2.7577,2.7578,2.7557,2.756,2.7557,2.7463,2.7596,2.7821,2.7841,2.7556,2.7554,2.7552,0,2.7918,2.7923,2.7966,2.7957,2.7898,2.792,2.7896,2.7861,2.786,2.7848,2.7846,2.7839,2.7834,2.783,2.7764,2.7709,2.7811,2.7721,2.7784,2.7786,2.7809,2.7808,2.8035,2.7814,2.7814,2.7814,2.7813,0,2.8095,2.8143,2.8044,2.8071,2.8121,2.8041,2.8093,2.8059,2.8028,2.8045,2.7961,2.7979,2.7893,2.7901,2.7851,2.7889,2.7889,2.7863,2.7849,2.7869,2.7872,2.7867,2.7855,2.7819,2.7818,2.7817,2.7816,0,2.8301,2.8237,2.8277,2.8217,2.8203,2.8242,2.8189,2.8211,2.8166,2.8189,2.8189,2.8119,2.8124,2.8059,2.8053,2.8018,2.8078,2.8049,2.8088,2.8078,2.8143,2.8137,2.8372,2.8397,2.8165,2.8167,2.8169,0,2.8417,2.845,2.8393,2.8397,2.8377,2.8387,2.8384,2.8306,2.8307,2.8273,2.8298,2.8296,2.829,2.8303,2.8251,2.8244,2.8212,2.8295,2.821,2.8229,2.8209,2.8206,2.8208,2.8312,2.8315,2.8317,2.8319,0,2.8627,2.8593,2.8592,2.858,2.8579,2.8566,2.8547,2.8556,2.8471,2.8476,2.8479,2.8474,2.8465,2.8463,2.8446,2.8421,2.8356,2.8346,2.836,2.838,2.84,2.8386,2.8133,2.8341,2.8339,2.8337,2.8336,2.8335,2.8789,2.8813,2.8774,2.8775,2.8753,2.8736,2.8752,2.8708,2.8709,2.8695,2.8649,2.866,2.8625,2.8595,2.8576,2.8582,2.8541,2.8562,2.8567,2.8572,2.8583,2.8401,2.8579,2.8578,2.8578,2.8577,2.8577,0,2.8991,2.8961,2.8963,2.8938,2.8938,2.8876,2.8851,2.8855,2.8865,2.8839,2.8833,2.8835,2.8832,2.878,2.877,2.8785,2.8754,2.8785,2.8781,2.8776,2.8622,2.8609,2.8809,2.8809,2.8809,2.8809,2.8809,2.8809,2.9097,2.9132,2.9094,2.9117,2.9086,2.9094,2.9085,2.9069,2.9046,2.9052,2.9049,2.9014,2.8976,2.8962,2.8956,2.894,2.8939,2.8979,2.8954,2.881,2.8787,2.8766,2.8753,2.8981,2.8981,2.9106,2.9108,2.9109]},{"header":{"parameterUnit":"m.s-1","parameterCategory":1,"la1":30.2991,"la2":30.254,"lo1":-89.0895,"lo2":-89.0444,"dy":0.0017,"dx":0.0017,"nx":28,"ny":28,"refTime":"2025-04-12T03:00:00:Z","depth":0,"parameterNumber":3,"parameterNumberName":"V-component_of_WINDS"},"data":[0,0,0,0,0,0,0,0,0,0,0,0,0,0,0,0,0,0,0,0,0,0,0,0,0,0,0,0,0,0,0,0,0,0,0,0,0,0,0,0,0,0,0,0,0,0,0,0,0,0,0,0,0,0,0,0,0,0,5.569,5.5691,0,5.5793,5.5795,5.5796,5.5764,5.5761,5.5759,5.5757,5.5857,5.5862,5.5867,0,0,0,0,0,0,0,0,0,0,0,0,0,5.5457,5.5461,5.569,5.5691,5.5692,5.5793,5.5795,5.5796,5.5764,5.5761,5.5759,5.5756,5.5856,5.5861,5.5867,0,0,0,0,0,0,0,0,0,0,0,0,0,5.5559,5.5463,5.5689,5.5689,5.569,5.5793,5.5795,5.5796,5.5765,5.5761,5.5758,5.5755,5.5854,5.5861,5.5868,5.5976,0,0,5.5889,5.5892,0,0,0,0,0,0,0,0,5.5553,5.5567,5.5687,5.5689,5.569,5.5762,5.5749,5.5857,5.5765,5.5736,5.5757,5.5753,5.5828,5.5837,5.5863,5.5981,5.5985,5.589,5.5894,5.5897,5.5899,0,0,0,0,0,0,0,5.5546,5.5563,5.573,5.5689,5.5691,5.5681,5.5692,5.5769,5.5799,5.5738,5.5736,5.5749,5.5828,5.5857,5.5865,5.5987,5.589,5.5896,5.59,5.5903,5.6195,5.6199,0,0,0,0,0,0,5.5539,5.5557,5.5727,5.5734,5.5612,5.5688,5.57,5.5742,5.5798,5.5803,5.5752,5.5747,5.5846,5.5857,5.5869,5.5997,5.5897,5.5904,5.5908,5.6192,5.6196,5.62,0,0,0,0,0,0,5.5534,5.5554,5.5723,5.5645,5.5666,5.5695,5.5743,5.5746,5.5775,5.5808,5.5813,5.5776,5.5844,5.5859,5.595,5.6,5.5907,5.5913,5.6187,5.6193,5.6198,5.6256,0,0,0,0,0,0,5.5528,5.5553,5.5596,5.5646,5.567,5.5804,5.5746,5.5751,5.5788,5.5783,5.5832,5.5837,5.5843,5.5939,5.5957,5.6008,5.5919,5.6183,5.619,5.6196,5.625,5.6263,5.6274,0,0,0,0,0,5.5519,5.5608,5.5599,5.5619,5.5725,5.5807,5.5821,5.5827,5.5792,5.5834,5.5855,5.5836,5.5993,5.5949,5.5968,5.6022,5.618,5.6188,5.6196,5.6244,5.626,5.6273,0,0,0,0,0,0,5.5562,5.5614,5.5605,5.5713,5.5756,5.5802,5.5856,5.5844,5.5897,5.5889,5.5893,5.5904,5.5997,5.6019,5.5969,5.6129,5.608,5.6093,5.6111,5.6126,5.6138,5.6129,5.5925,0,0,0,0,0,5.5584,5.5649,5.569,5.5781,5.5804,5.5826,5.5862,5.5863,5.5907,5.5925,5.5953,5.5995,5.6053,5.6091,5.6147,5.6253,5.6262,5.63,5.6312,5.6322,5.6331,5.6386,5.6403,5.6226,5.6226,5.6226,0,0,5.563,5.5667,5.5707,5.5791,5.5824,5.5888,5.5842,5.5912,5.5959,5.5935,5.6022,5.6044,5.609,5.6189,5.6233,5.621,5.6382,5.6332,5.634,5.6344,5.6396,5.6412,5.6427,5.6231,5.623,5.6229,0,0,5.5745,5.5781,5.586,5.5894,5.5946,5.5961,5.5979,5.6027,5.6041,5.6129,5.6112,5.6166,5.6268,5.6301,5.6331,5.6458,5.644,5.6476,5.6538,5.6591,5.6605,5.6617,5.6659,5.6675,5.6486,5.6486,5.6486,0,5.5795,5.5893,5.5901,5.5973,5.6008,5.5992,5.6069,5.6102,5.6169,5.6193,5.6166,5.6292,5.6322,5.6426,5.6457,5.6483,5.6502,5.6469,5.6603,5.6615,5.6626,5.6666,5.6683,5.649,5.6489,5.6489,5.6488,0,5.595,5.6018,5.6075,5.6141,5.6183,5.6258,5.6274,5.6316,5.6313,5.6329,5.6417,5.6453,5.6514,5.654,5.6537,5.6643,5.6626,5.6602,5.6552,5.6647,5.6684,5.67,5.6495,5.6494,5.6493,5.6492,0,0,5.6094,5.6164,5.6184,5.6213,5.6269,5.632,5.6392,5.6454,5.6488,5.6535,5.6593,5.6679,5.6655,5.6689,5.6691,5.6738,5.6832,5.6707,5.6708,5.6726,5.6946,5.6963,5.6981,5.6822,5.6825,5.6827,5.6941,0,5.6212,5.6341,5.635,5.6465,5.6526,5.6511,5.6573,5.6612,5.6629,5.6681,5.6699,5.6759,5.6725,5.6745,5.6792,5.6811,5.6876,5.6803,5.6872,5.6875,5.6859,5.7001,5.7019,5.7125,5.6956,5.6959,5.6961,0,5.6367,5.6419,5.6541,5.6586,5.6612,5.6669,5.6724,5.6776,5.6819,5.6827,5.6865,5.6859,5.693,5.6881,5.6976,5.6927,5.6956,5.6969,5.6974,5.6978,5.6922,5.7006,5.7159,5.7174,5.6985,5.6983,5.6981,0,5.6456,5.6557,5.6642,5.6668,5.6724,5.6763,5.6787,5.6828,5.6863,5.6912,5.6934,5.699,5.7019,5.7061,5.7069,5.7033,5.7164,5.7116,5.717,5.717,5.7196,5.7194,5.7353,5.722,5.722,5.722,5.7219,0,5.6586,5.666,5.6683,5.6735,5.6817,5.6825,5.6905,5.6926,5.6962,5.7016,5.7006,5.7056,5.7065,5.7117,5.7124,5.72,5.7214,5.7221,5.7221,5.722,5.7219,5.7237,5.7229,5.7224,5.7223,5.7222,5.7221,0,5.6698,5.6717,5.6808,5.6854,5.6867,5.6925,5.6962,5.701,5.7026,5.7094,5.711,5.7134,5.7194,5.7207,5.7278,5.7282,5.7372,5.7366,5.7357,5.7356,5.7408,5.7402,5.7583,5.7605,5.746,5.7461,5.7462,0,5.6778,5.6835,5.6887,5.6923,5.6949,5.7008,5.7045,5.7054,5.7092,5.7145,5.7186,5.7245,5.7293,5.7389,5.741,5.7464,5.7457,5.7517,5.7465,5.7462,5.7454,5.745,5.7454,5.7526,5.7528,5.7529,5.753,0,5.6917,5.6923,5.6978,5.7035,5.7079,5.7124,5.7167,5.7196,5.7211,5.7254,5.7316,5.7353,5.7425,5.7483,5.7536,5.7558,5.7545,5.7547,5.7561,5.7559,5.7551,5.7553,5.7381,5.7542,5.754,5.754,5.7539,5.7539,5.7014,5.7062,5.7106,5.7166,5.7199,5.7239,5.7286,5.7308,5.736,5.7421,5.7423,5.7489,5.7528,5.7599,5.7625,5.7675,5.7656,5.7678,5.7683,5.7688,5.7691,5.7545,5.7685,5.7685,5.7684,5.7684,5.7684,0,5.7149,5.7176,5.7231,5.7292,5.7338,5.7325,5.7371,5.741,5.7469,5.7508,5.7555,5.7625,5.768,5.7707,5.7761,5.7795,5.7791,5.7809,5.7805,5.7809,5.7707,5.7687,5.7812,5.7812,5.7812,5.7812,5.7812,5.7812,5.7225,5.7306,5.7317,5.7413,5.7439,5.7505,5.7532,5.7568,5.7599,5.7677,5.7724,5.7742,5.7774,5.783,5.788,5.7886,5.7904,5.7925,5.7928,5.783,5.7817,5.7805,5.7786,5.793,5.793,5.8026,5.8027,5.8028]}]]